{"data":{"norad_id":67826,"intl_designator":"2026-033F","name":"STARLINK-35865","alt_names":[],"object_type":"PAYLOAD","status":"ACTIVE","operator":null,"country":"US","launch_date":"2026-02-16","launch_site_code":"AFETR","launch_vehicle":null,"mission":null,"orbit_class":"UNKNOWN","rcs_meters":null,"size_class":null,"mass_kg":null,"dimensions":null,"purposes":["comms"],"wikipedia_slug":null,"has_3d_model":false,"image_url":null,"decayed_at":null,"tle_current":{"epoch":"2026-05-25T04:29:52.586016Z","epoch_age_seconds":52891,"freshness":"FRESH","line1":"1 67826U 26033F   26145.18741419  .00019541  00000+0  71766-3 0  9995","line2":"2 67826  43.0031 195.0070 0001692 284.6523  75.4141 15.27584543 16375","mean_motion":15.27584543,"eccentricity":0.0001692,"inclination_deg":43.0031,"raan_deg":195.007,"arg_perigee_deg":284.6523,"mean_anomaly_deg":75.4141,"bstar":0.00071766,"rev_number":1637,"period_min":94.266468366589,"perigee_km":481.87458231127,"apogee_km":484.19640308279,"semimajor_km":6861.172492697,"source":"CELESTRAK","updated_at":"2026-05-25T13:38:21.698263Z"}}}